Location: *
(43.4667°N, 11.6833°E)
Time: 15:24:31
(UTC+00:00)

Tiangong 2 - Pass Details

Date: 19 July 2019
Orbit: 185 x 376 km, 42.8° (Epoch: 19 July)

Event Time Altitude Azimuth Distance (km) Brightness Sun altitude
Rises 20:05:41 0° 278° (W) 2,228 5.9 -11.9°
Reaches altitude 10° 20:07:51 10° 269° (W) 1,376 4.5 -12.1°
Maximum altitude 20:10:43 35° 201° (SSW) 624 1.9 -12.5°
Enters shadow 20:12:00 24° 154° (SSE) 822 2.2 -12.7°
